Theta_e
334 332 331 329 327 326 326 325 324 324 325 325 325 326 325 324 322 318 316 317 316 315 314 312 311 311 311 310 309 309 308 308 308 308 307 308 309 311 313 315 316 317 317 317 316 315 315 315 312 310 311 310 310 309 310 312 313 315 316 317 318 318 319
332 330 328 327 326 326 325 324 324 323 324 324 324 324 322 320 318 315 313 312 312 311 310 310 309 309 308 307 306 305 305 305 305 305 305 304 304 305 305 306 307 308 309 311 310 308 309 311 309 306 305 303 303 303 303 303 302 303 303 304 305 306 311
328 326 325 324 324 324 323 323 323 322 322 322 321 320 318 316 314 312 311 310 310 309 308 307 306 305 304 303 302 301 301 301 301 301 301 301 301 301 302 303 305 306 306 307 306 305 307 309 308 307 306 306 305 302 301 300 300 300 299 300 301 302 305
325 324 323 322 322 322 322 322 322 321 321 319 317 315 313 311 310 309 309 308 307 306 305 303 302 301 301 300 300 299 299 299 300 300 300 301 300 299 302 306 308 309 309 308 307 304 305 307 307 307 307 306 304 301 299 299 298 299 298 299 300 300 300
324 323 322 322 321 321 321 321 320 318 318 316 312 310 309 308 307 306 305 304 302 302 301 300 300 300 299 299 299 298 298 298 299 300 300 300 300 300 305 309 309 310 309 309 306 302 302 305 306 306 306 304 301 298 297 298 298 297 298 298 298 297 297
323 321 321 322 321 320 319 319 317 316 315 312 308 306 305 304 303 302 300 300 300 299 299 299 299 299 298 298 299 298 298 298 298 299 300 300 300 302 307 308 308 309 309 307 303 301 302 304 304 305 302 300 298 297 296 296 297 297 297 297 297 296 297
322 321 321 322 320 318 318 317 315 314 313 309 304 303 302 300 299 299 299 299 299 298 298 298 298 298 298 298 298 300 301 299 297 297 298 300 301 303 306 307 307 307 305 302 300 300 302 302 302 302 300 298 297 297 296 296 296 297 297 297 296 297 297
320 320 320 320 319 318 317 315 313 311 309 304 301 300 299 298 298 298 298 298 298 298 298 298 297 297 297 297 298 300 301 299 297 296 297 298 300 302 304 304 304 302 299 298 297 297 299 299 299 299 298 298 297 297 296 296 296 296 297 297 297 297 297
319 319 319 319 318 317 315 314 310 306 302 299 298 298 298 298 297 297 297 297 297 297 297 297 297 297 297 297 298 298 299 299 298 297 296 297 300 302 302 301 299 297 296 296 296 295 296 297 297 297 297 297 297 298 297 297 296 296 296 297 297 297 297
317 317 317 317 317 315 313 311 306 300 298 297 297 297 297 297 297 297 297 297 297 297 297 297 297 297 297 297 297 298 299 300 299 298 297 297 301 304 303 301 298 296 295 295 295 296 296 296 296 296 296 296 296 297 298 297 297 297 296 297 297 297 297
315 315 315 314 313 313 311 307 301 297 297 297 297 296 296 296 296 296 296 296 296 297 297 297 296 296 296 296 298 298 299 300 300 298 297 297 300 303 303 301 298 296 295 295 295 296 295 296 295 296 296 296 296 296 297 297 297 297 297 297 297 297 298
312 312 311 311 310 309 306 301 297 297 297 297 296 296 296 296 296 296 296 296 297 297 297 297 296 296 296 296 297 297 298 299 299 298 297 298 300 301 300 299 298 296 295 295 295 295 295 296 296 295 296 296 296 296 296 297 297 297 297 297 297 297 297
311 311 311 310 309 305 300 297 297 297 297 297 297 296 296 296 296 296 296 297 296 297 297 296 296 296 296 296 297 298 298 299 299 299 299 300 301 300 298 298 298 296 296 295 295 295 295 295 296 295 296 296 295 296 296 296 296 297 296 296 296 297 297
311 311 311 309 306 301 298 298 298 298 298 298 297 296 296 296 296 296 296 296 296 296 296 296 297 296 297 297 299 300 300 300 301 302 301 300 300 300 298 298 297 296 295 295 295 295 295 295 295 295 295 295 295 296 295 295 296 296 296 296 296 296 296
311 310 308 305 301 300 299 299 299 298 298 297 297 296 296 296 296 296 296 296 296 296 295 295 296 297 298 298 300 302 302 300 302 303 301 300 300 300 298 297 297 296 295 295 295 294 294 294 295 295 295 295 296 296 295 295 295 296 296 296 296 296 296
309 308 306 302 300 299 298 299 299 298 297 297 297 296 296 296 295 295 295 295 295 295 295 295 295 297 297 297 300 303 302 299 301 302 301 300 300 299 298 297 297 295 295 295 294 294 294 294 294 295 295 296 296 296 295 295 295 295 296 296 296 296 296
308 307 304 301 300 299 298 298 298 297 296 297 297 296 295 295 295 295 295 295 295 295 295 295 295 296 297 297 299 302 302 300 301 302 301 300 299 298 298 297 296 295 295 295 294 294 293 294 294 295 295 296 295 295 295 295 295 295 295 296 296 296 296
306 304 302 300 299 298 297 297 297 296 297 296 296 295 295 295 295 295 295 295 295 295 294 294 294 295 297 297 298 301 302 302 301 300 300 300 299 298 298 297 296 296 295 295 294 294 293 293 294 294 295 295 295 294 294 294 295 295 295 295 295 295 295
303 301 300 299 298 297 296 296 296 296 297 297 296 295 294 294 294 294 295 294 294 294 294 294 294 295 297 298 298 300 302 301 299 300 300 299 299 298 297 297 297 296 295 295 295 294 293 293 293 294 295 295 294 294 294 294 294 295 295 295 295 295 295
301 300 299 298 297 296 296 296 295 295 296 296 295 294 294 294 294 294 294 294 294 294 294 294 294 295 297 298 299 299 300 300 299 299 300 299 299 298 297 297 297 296 296 295 295 295 294 293 293 293 294 294 295 294 294 294 294 294 294 295 295 295 295
299 299 298 297 296 296 296 296 295 295 295 295 294 294 294 294 294 294 294 294 294 294 294 294 294 295 296 297 299 300 300 300 299 299 299 299 299 298 297 296 296 296 296 295 295 295 294 293 293 293 293 294 294 294 294 294 294 294 294 294 294 295 295
298 298 297 296 296 296 296 296 296 296 296 295 295 294 294 294 294 294 294 294 294 294 294 294 294 295 296 297 298 300 300 300 299 299 299 299 299 298 297 296 296 296 296 295 295 295 295 293 293 294 293 293 294 294 294 294 294 294 294 294 294 295 295
297 297 296 296 296 296 296 296 296 297 298 298 295 293 293 293 293 293 293 293 293 293 293 293 294 295 296 297 298 299 300 300 299 299 298 299 299 298 297 297 296 296 296 295 295 295 295 293 293 293 293 293 293 294 294 294 294 294 294 294 294 294 295
296 296 296 296 295 295 295 295 296 297 299 298 295 293 293 293 293 293 293 293 293 293 293 293 294 294 296 297 297 298 299 299 299 298 298 298 298 298 297 297 296 296 296 295 295 295 294 293 293 293 293 293 294 294 294 294 294 294 294 294 294 294 295
296 296 296 295 295 295 295 295 295 296 297 296 294 293 293 293 293 292 293 293 293 293 292 293 293 294 294 296 297 299 299 299 299 299 297 297 298 298 297 297 296 296 296 296 295 295 294 293 293 293 294 294 294 294 294 294 294 294 294 294 294 294 295
295 295 295 295 295 295 295 295 295 295 296 296 295 294 293 292 292 292 292 292 292 292 292 292 292 293 293 294 295 297 298 299 299 299 298 297 298 298 297 297 296 296 296 296 295 294 294 294 293 294 294 294 294 294 294 294 294 294 294 294 294 294 294
295 294 294 295 295 295 294 294 294 294 295 296 296 296 294 292 292 292 292 292 292 292 292 292 292 292 292 293 293 294 295 297 298 299 298 297 297 298 297 297 296 296 296 296 295 294 294 294 294 294 294 294 294 294 294 294 294 294 294 294 294 294 294
295 295 294 294 294 294 294 294 294 294 294 295 296 296 295 293 292 292 292 292 292 292 292 292 292 292 292 292 292 292 293 294 297 298 298 297 297 297 297 297 297 296 296 296 295 294 294 294 294 294 294 294 294 294 294 294 294 294 294 294 294 294 294
296 295 294 294 294 294 294 294 293 293 293 293 293 294 294 293 293 292 292 292 292 292 292 292 292 292 292 291 292 292 292 293 294 296 297 297 297 297 297 297 296 296 296 295 294 294 294 294 294 294 294 294 294 294 294 294 294 294 294 294 294 294 294
297 295 295 294 294 294 294 294 294 293 293 293 293 293 293 293 292 292 292 292 292 292 292 292 292 292 291 291 291 291 292 292 292 294 296 297 297 296 296 296 296 295 295 294 294 294 294 294 294 294 294 294 294 294 294 293 294 293 293 293 293 294 294
297 295 295 294 294 294 294 294 294 293 293 293 293 292 292 292 292 292 292 292 292 292 292 292 292 292 291 291 291 291 291 291 291 292 294 295 296 295 295 295 295 294 294 294 294 294 294 294 294 294 294 294 294 294 294 293 293 293 293 293 293 294 295
296 295 295 294 294 294 294 294 294 295 295 295 293 293 293 294 294 294 294 294 293 293 292 292 292 292 291 291 291 291 291 291 291 291 291 293 294 294 294 294 294 294 294 294 294 294 294 294 294 294 294 294 294 294 294 294 293 293 292 293 293 294 295
296 295 295 295 295 294 294 295 296 296 297 297 295 295 296 297 297 297 297 296 296 295 293 292 292 292 291 291 291 291 291 291 291 291 291 292 293 294 294 294 294 294 294 294 294 294 294 294 294 294 294 294 293 293 294 294 293 292 292 293 294 294 294
296 295 295 295 295 295 296 297 298 298 299 298 297 298 299 299 299 299 298 298 298 298 296 294 293 292 291 291 291 291 291 291 291 292 292 293 294 294 294 294 295 294 294 295 294 294 294 294 293 293 294 294 293 293 293 293 292 292 293 293 294 294 294
296 295 295 295 295 296 298 300 300 300 299 298 298 300 300 299 299 300 299 299 299 299 298 296 294 292 292 291 291 291 291 291 291 292 293 293 294 294 294 295 295 294 295 295 294 294 294 294 293 293 294 294 293 293 293 293 292 292 293 293 293 294 294
296 295 295 295 295 297 299 300 299 299 299 298 299 300 300 300 300 300 300 300 299 299 299 297 295 293 292 292 291 292 292 292 292 292 293 293 294 294 294 295 295 295 295 295 295 294 293 293 294 293 294 294 293 293 293 292 291 292 293 293 293 293 294
296 295 295 295 296 297 298 298 298 299 300 300 300 300 300 300 300 300 300 300 300 300 299 298 297 294 292 292 292 292 292 292 292 293 293 294 294 294 294 294 294 295 295 295 295 294 293 293 294 293 293 293 292 293 292 291 291 292 293 293 293 293 294
Wind_Speed
7 7 8 9 9 10 10 10 9 8 8 10 11 12 11 11 9 5 4 5 4 2 1 1 2 3 4 3 3 3 4 4 5 6 8 8 6 4 2 1 3 4 3 3 6 9 13 19 24 24 22 20 20 20 20 20 20 21 22 21 20 19 19
11 10 10 10 10 11 11 10 10 9 10 11 12 12 9 8 7 4 4 4 2 2 1 1 2 3 3 2 2 3 4 4 6 6 7 8 8 9 8 7 7 7 5 5 9 11 11 13 19 23 24 22 19 18 20 21 21 21 22 21 20 18 17
11 11 11 11 11 10 10 10 9 10 11 10 9 9 6 6 5 4 5 4 4 3 2 1 1 1 2 2 3 4 5 6 7 7 8 8 9 9 10 11 13 13 13 13 15 16 15 14 16 20 24 25 24 23 23 24 22 22 22 21 20 18 17
11 11 10 9 8 8 8 8 8 10 11 7 5 6 6 7 7 6 5 5 4 3 2 1 1 0 2 3 4 6 6 7 8 8 8 9 9 10 12 13 13 13 14 16 18 18 16 17 19 21 22 24 25 26 26 27 25 23 23 22 22 22 22
10 9 8 7 8 8 8 8 8 9 8 4 6 8 8 8 7 6 5 5 4 3 3 2 1 1 3 4 5 7 7 8 8 8 8 9 10 12 12 11 10 10 12 14 16 16 15 16 18 21 23 24 25 26 26 27 26 25 24 24 24 25 26
9 8 8 10 10 9 8 8 9 9 6 6 8 10 9 8 7 6 5 5 4 4 4 4 2 3 4 5 6 7 8 9 8 8 9 9 10 11 10 8 8 8 10 12 13 13 14 15 16 19 22 23 25 27 27 26 27 26 25 25 26 26 27
12 11 13 14 12 10 9 8 9 9 8 9 10 10 9 8 7 6 5 5 6 5 5 5 4 5 6 6 7 7 8 9 8 8 8 8 9 9 7 6 7 9 10 11 12 13 14 15 17 20 23 24 26 27 27 27 28 28 28 28 27 28 28
15 15 16 15 12 10 10 8 7 8 10 11 11 9 9 9 8 7 6 6 6 6 6 6 6 6 7 7 6 7 8 8 7 7 8 7 8 8 7 6 8 9 10 11 12 13 15 16 18 19 21 25 28 30 30 30 28 28 29 31 29 27 29
16 16 16 15 13 12 11 8 8 10 12 12 11 10 9 9 8 8 7 7 7 7 7 7 7 7 7 7 7 7 8 8 7 8 8 8 9 10 10 9 9 10 11 11 13 14 16 16 17 18 19 23 27 30 32 33 33 30 30 32 31 28 29
16 17 16 15 14 13 10 9 11 13 14 13 12 11 10 9 9 9 8 8 7 7 8 8 8 7 7 7 8 8 8 7 7 8 8 9 10 11 11 10 10 12 12 13 14 15 15 15 16 17 19 23 25 26 29 31 33 34 33 34 34 33 32
17 17 15 15 15 13 12 12 14 15 14 13 13 12 11 10 10 10 9 9 8 8 8 8 9 8 8 7 7 8 8 7 7 9 9 9 10 9 9 10 11 12 13 14 14 14 15 16 18 19 20 23 24 24 25 26 29 32 34 34 35 36 36
15 15 15 15 15 14 14 16 17 16 15 14 13 13 12 11 10 10 9 9 9 8 8 8 9 9 9 8 8 9 9 8 8 10 10 11 10 8 8 11 12 12 14 16 14 14 17 19 21 23 23 25 25 24 24 24 27 31 33 33 34 36 37
17 17 16 14 13 15 17 18 17 16 16 15 14 13 12 11 10 9 8 8 8 8 7 7 8 9 10 10 10 10 10 9 10 11 12 12 10 8 10 12 13 14 15 16 15 17 21 23 24 26 26 26 27 25 24 24 27 31 31 30 32 35 36
18 17 16 13 14 17 18 17 16 15 15 14 13 12 11 11 10 9 8 8 8 7 6 6 7 8 10 10 11 11 10 10 11 11 11 11 9 8 11 12 13 15 15 17 20 23 25 26 27 28 28 27 27 25 24 24 25 30 32 31 32 33 34
17 17 17 16 17 19 18 17 17 16 16 15 13 12 11 11 10 9 9 8 8 7 7 6 6 6 8 10 11 11 9 10 12 9 9 9 9 9 11 13 15 16 17 20 24 26 27 28 29 29 28 27 26 25 25 25 26 28 31 32 32 32 32
18 18 18 18 18 18 18 18 17 16 16 14 12 11 11 11 9 9 8 8 8 8 7 7 6 5 7 9 12 11 9 10 11 8 8 9 9 9 11 14 16 17 20 23 25 27 28 29 30 29 27 25 25 26 27 27 28 29 31 32 31 31 33
19 19 19 19 19 18 17 17 16 15 15 14 12 12 11 10 9 8 8 8 7 7 8 8 6 4 5 8 11 11 10 10 10 8 9 10 11 12 13 16 17 18 22 26 26 28 29 29 30 29 25 24 26 28 28 28 28 29 31 33 33 32 34
21 21 21 20 20 19 17 17 16 15 15 13 12 12 11 10 8 8 8 8 7 7 8 8 6 5 5 7 10 12 11 9 8 8 9 10 12 14 16 17 17 19 23 26 27 29 30 30 31 30 25 25 28 29 29 30 30 30 31 33 35 35 35
22 22 22 21 20 19 18 17 16 16 14 12 12 12 11 9 8 8 8 8 8 8 8 8 7 5 6 7 9 12 11 7 8 9 8 9 12 16 17 15 15 18 21 26 28 30 32 31 31 31 26 25 27 29 31 32 32 32 32 33 35 36 36
23 22 21 21 20 19 18 16 16 15 13 12 12 12 10 10 9 9 9 9 8 8 8 7 7 6 6 7 8 10 10 8 10 10 7 9 12 17 17 12 13 19 21 26 29 30 33 32 31 30 28 25 26 28 31 33 34 34 34 35 36 36 36
22 22 21 21 20 19 18 17 16 15 14 13 13 11 11 10 10 10 10 10 9 9 8 8 8 7 7 7 8 9 10 10 11 10 6 7 11 17 17 12 15 22 23 26 29 31 33 32 29 30 30 26 25 27 30 33 35 36 36 36 37 38 38
22 22 22 21 19 18 17 17 17 16 15 13 13 12 11 11 10 10 10 10 10 10 9 9 9 8 8 8 8 8 10 10 10 9 6 7 12 16 17 15 18 23 25 27 29 31 33 32 28 29 31 29 28 29 31 32 34 36 37 37 39 40 40
23 22 21 20 18 17 17 18 17 17 15 13 12 12 11 11 11 11 11 11 11 11 11 11 10 9 9 9 9 9 11 10 9 8 7 7 11 15 16 17 20 24 25 27 29 31 33 31 27 27 30 31 31 31 32 32 33 36 37 38 40 41 42
23 22 21 19 19 19 19 18 18 17 15 13 13 14 12 12 12 11 11 11 11 11 12 12 11 10 9 9 10 11 11 10 8 8 8 6 9 14 15 17 22 24 24 26 29 31 32 29 26 26 29 30 32 32 31 32 33 35 37 39 40 41 42
23 22 21 20 20 19 19 18 18 17 15 14 14 15 13 12 12 12 12 12 12 12 13 13 12 10 9 9 9 9 9 9 6 9 11 8 9 13 13 16 22 24 23 26 29 29 29 28 26 27 29 30 32 33 31 30 31 34 36 38 40 41 42
22 22 21 20 20 19 18 18 17 17 16 14 14 14 14 13 13 13 12 12 12 13 13 13 13 12 10 9 8 6 6 7 4 4 9 9 9 11 12 17 21 22 23 27 29 28 27 27 27 27 30 31 33 34 33 29 29 32 34 35 38 40 41
23 22 21 21 21 20 19 18 17 16 15 14 13 13 14 14 13 12 12 12 12 12 13 14 13 13 12 11 9 7 5 4 3 2 5 7 9 10 13 17 19 21 24 28 29 27 27 28 28 29 32 33 34 36 35 32 31 32 32 33 36 40 42
23 23 22 22 21 20 19 18 17 16 15 14 13 12 12 13 13 12 12 11 11 11 13 13 13 13 13 12 11 10 9 5 2 1 2 4 6 8 13 17 18 20 25 28 27 27 27 28 29 30 32 33 35 37 36 33 32 33 33 34 36 40 43
24 24 23 23 22 21 20 19 18 17 16 15 14 12 11 11 12 12 11 11 11 11 12 13 13 13 13 13 12 11 11 9 5 2 1 3 5 7 12 16 17 20 24 25 25 26 27 29 30 31 32 34 35 37 37 35 33 34 34 34 37 41 43
25 24 24 23 23 22 21 20 18 18 17 16 15 13 12 12 12 13 12 11 11 12 13 13 13 14 14 14 13 12 12 12 9 5 2 2 3 6 11 15 17 18 21 23 25 26 27 28 30 31 33 35 35 37 38 37 35 35 35 36 39 41 41
26 25 25 25 24 23 21 19 18 17 16 16 15 14 13 13 13 13 13 13 13 13 14 15 15 15 15 15 14 13 12 12 11 9 4 3 6 7 11 13 14 17 21 23 24 26 27 28 30 32 33 34 35 37 38 37 37 37 37 38 40 40 41
26 26 25 25 24 22 21 19 18 16 15 15 15 14 13 13 12 12 13 14 15 15 16 16 16 16 16 15 14 14 13 13 13 13 9 5 5 8 12 14 16 18 22 23 25 26 28 28 29 31 32 33 36 38 37 36 38 40 39 39 40 41 44
25 25 26 25 23 21 21 18 16 14 13 12 12 12 11 10 10 10 11 13 14 15 16 16 17 17 17 16 16 15 15 15 14 14 12 9 9 12 15 16 18 20 22 23 25 27 27 27 29 29 29 32 35 36 34 35 38 40 39 39 41 44 47
25 25 25 25 23 22 20 17 14 13 11 9 9 9 9 9 9 9 10 11 12 13 14 15 16 17 17 16 16 16 16 15 14 14 12 11 12 14 16 17 18 20 22 21 24 28 28 28 29 28 27 31 34 32 32 35 38 38 37 38 42 46 49
25 25 25 24 24 23 20 16 14 13 11 9 8 8 7 7 8 6 6 9 10 11 12 14 15 17 17 16 16 17 16 13 12 12 12 13 13 14 16 17 18 20 21 20 23 28 29 28 29 28 27 30 33 32 32 35 38 37 36 39 43 47 50
25 25 25 25 24 23 20 18 16 14 12 9 9 9 7 5 5 4 3 4 6 9 11 12 13 15 16 16 15 16 15 12 11 12 14 14 15 15 16 17 17 20 20 19 22 29 29 27 28 29 29 31 33 33 34 37 38 35 36 40 43 46 50
26 26 25 24 23 22 21 20 17 15 12 11 10 10 8 6 4 2 0 2 4 8 11 11 12 14 15 15 14 15 13 11 10 12 13 14 15 15 16 17 17 19 20 20 24 29 28 27 28 30 30 32 34 34 36 38 37 35 36 41 44 46 49
Wind_Direction
215 231 242 249 257 264 270 276 284 283 277 278 276 276 278 272 263 239 211 218 233 251 240 225 270 308 323 342 352 343 331 330 338 339 343 347 344 350 360 267 248 262 272 305 334 336 326 312 306 306 304 300 304 308 308 306 305 304 301 300 300 302 303
222 232 235 239 245 253 261 269 274 270 266 272 274 274 265 249 242 207 177 177 146 96 111 240 326 327 325 345 352 344 348 354 1 1 358 360 3 8 11 14 13 6 359 353 349 353 355 337 323 319 317 314 311 316 322 320 319 320 318 316 316 313 304
228 233 234 234 233 238 248 254 261 263 266 271 269 261 236 212 198 156 149 151 136 129 142 198 315 326 337 6 14 14 18 25 29 23 21 23 21 22 23 20 19 14 5 2 0 2 6 359 343 334 333 330 323 323 329 329 328 329 329 331 328 323 316
222 228 228 229 228 225 230 236 244 258 266 266 235 207 177 160 149 138 142 146 142 144 151 170 216 46 56 48 43 43 40 42 46 39 37 38 33 35 37 33 30 19 6 2 357 355 359 359 350 343 341 338 329 324 329 333 334 335 336 338 334 332 331
219 223 209 205 217 217 215 221 231 241 247 223 170 153 141 135 134 134 136 140 143 147 149 152 164 101 78 75 69 62 56 56 55 48 47 44 41 49 51 42 36 21 4 356 348 348 359 0 354 347 340 336 332 329 331 333 334 337 341 341 338 339 339
207 207 186 181 191 196 197 206 213 213 200 164 145 137 132 129 129 134 137 143 147 142 143 141 129 102 88 88 86 76 64 58 54 48 49 46 47 61 63 44 32 17 356 346 346 357 5 359 353 347 338 336 335 333 335 336 335 337 341 343 342 342 341
195 192 183 181 181 183 195 210 208 195 172 151 142 135 133 132 133 136 139 144 142 136 136 133 122 106 98 95 91 84 69 58 54 51 51 51 55 65 62 30 14 7 355 351 359 7 4 357 353 344 336 337 337 336 338 338 338 339 339 341 344 344 340
193 190 185 186 187 192 207 212 189 162 148 143 139 135 136 137 136 135 135 137 136 135 133 127 120 111 104 101 95 86 74 63 60 58 53 55 57 52 42 20 7 8 4 2 7 7 3 360 353 345 343 345 344 341 341 339 339 342 341 338 340 342 341
193 192 189 189 193 205 211 193 154 138 138 138 136 137 136 136 135 133 134 136 136 136 133 125 118 109 104 103 98 92 84 72 62 60 56 60 58 41 27 21 20 22 14 9 11 9 7 4 358 355 358 1 355 347 343 341 339 342 343 340 336 339 341
190 192 193 193 198 203 193 169 147 138 137 137 137 137 136 135 135 136 137 137 136 135 129 122 114 105 101 103 100 92 85 74 63 60 57 62 66 47 25 18 22 23 18 14 15 12 10 8 6 5 6 8 4 353 345 339 336 337 341 341 338 336 339
191 193 191 190 189 182 166 154 146 140 138 138 138 138 139 141 140 141 142 138 134 132 126 119 113 106 103 102 100 92 85 79 65 58 55 63 70 54 22 12 15 20 19 15 14 15 15 12 10 10 8 8 6 357 346 334 328 332 336 337 339 337 337
170 170 165 166 168 163 155 150 146 142 141 141 141 144 146 147 146 145 143 137 132 128 123 120 115 111 106 102 98 90 85 81 65 55 54 58 59 42 15 12 12 15 17 16 17 18 17 15 13 10 8 7 5 359 350 336 325 328 333 331 333 339 339
138 145 151 157 159 156 153 150 150 149 147 146 148 149 150 148 145 140 132 127 124 121 120 122 119 114 108 100 92 83 78 75 62 54 52 52 47 26 10 10 9 11 16 17 20 20 17 16 14 11 7 4 3 358 351 342 327 325 333 330 328 337 341
144 153 160 163 158 154 153 152 153 152 149 147 148 149 146 141 136 129 123 117 114 112 113 116 119 118 108 96 86 75 67 66 61 52 46 45 39 17 6 6 6 13 20 20 20 20 17 14 11 9 5 1 2 359 354 349 335 327 332 335 334 335 337
160 162 162 159 155 154 154 153 153 152 148 146 149 149 143 136 131 127 123 118 114 111 106 106 110 112 105 95 85 72 58 66 67 49 36 40 33 11 359 359 6 16 22 22 20 18 14 12 8 5 4 1 0 3 2 356 347 335 332 336 338 335 334
167 164 160 157 156 156 156 154 155 154 150 150 152 147 137 132 129 125 119 114 111 107 101 100 100 96 93 91 86 72 53 63 68 44 24 29 20 4 357 360 10 19 21 20 17 13 12 9 5 2 2 3 3 5 6 0 352 344 336 335 336 334 335
165 163 160 157 156 157 156 156 156 154 151 153 152 141 133 129 125 119 115 109 104 101 98 95 92 81 75 82 87 79 59 56 62 43 21 20 16 10 7 9 15 20 20 17 11 8 9 6 4 5 4 6 10 8 5 0 355 348 341 336 335 333 333
161 162 161 158 157 157 156 156 156 154 153 155 149 139 132 128 124 119 113 106 100 97 95 92 92 84 71 75 84 85 72 51 48 47 27 18 17 13 13 15 17 18 18 14 8 4 4 3 4 8 6 8 14 13 7 2 357 352 347 340 337 335 334
162 162 162 160 159 158 158 158 157 156 158 154 142 134 131 127 123 117 107 100 97 92 90 90 91 87 79 78 81 88 85 53 42 57 35 16 14 9 14 20 12 10 11 6 2 2 2 1 3 7 6 6 13 13 7 2 358 353 350 346 341 340 338
165 164 164 162 160 159 159 160 157 156 157 149 137 134 134 127 119 110 101 96 93 86 86 86 86 89 86 83 82 86 85 60 49 58 33 10 8 3 11 22 7 5 5 357 357 1 2 360 360 3 4 2 5 7 3 359 357 353 350 348 346 345 343
167 166 165 164 163 164 162 159 156 154 151 146 143 140 132 122 111 104 97 93 91 86 86 85 85 89 85 84 85 83 80 65 53 56 36 0 356 356 4 14 7 4 1 355 357 0 0 358 357 0 3 1 359 1 359 357 354 351 349 346 345 344 343
168 168 168 167 167 166 165 161 156 151 148 148 146 135 122 112 103 98 93 90 90 88 85 83 83 85 83 85 88 84 82 70 51 51 44 358 347 352 359 6 5 1 357 355 358 358 357 358 357 1 5 3 359 358 357 355 352 349 345 342 341 341 339
170 170 170 169 167 165 165 163 158 152 152 152 141 125 114 107 99 93 89 87 86 83 78 75 75 79 81 81 84 87 85 73 48 42 44 11 349 350 354 360 2 358 354 355 357 355 354 355 358 4 7 5 2 359 355 353 350 347 342 338 337 337 335
171 171 171 169 166 166 165 165 162 157 158 154 137 122 115 108 99 91 87 84 81 77 72 70 69 71 76 76 79 85 81 71 45 24 31 23 349 349 355 357 357 353 351 354 355 353 354 355 359 5 7 5 3 1 356 352 349 346 342 336 334 335 333
171 171 170 168 167 168 167 166 164 160 159 154 140 127 116 107 98 91 87 82 80 75 71 71 69 68 71 72 76 83 78 72 48 13 20 22 351 347 353 353 350 348 349 352 354 355 355 357 0 3 3 2 1 1 360 355 351 347 342 337 334 334 333
171 169 169 169 169 170 168 166 164 161 158 154 146 133 119 108 100 94 88 80 78 76 71 69 66 62 60 58 61 76 80 84 85 29 29 28 2 345 345 347 345 344 349 353 355 356 356 356 359 1 1 1 360 360 1 358 354 350 345 339 335 334 334
169 168 168 169 169 170 168 164 162 160 157 154 150 138 124 113 104 96 90 83 77 74 70 66 61 57 52 46 42 40 49 85 124 92 41 29 16 357 343 342 342 343 350 352 352 356 359 360 1 1 359 358 358 358 359 357 354 350 345 340 335 334 336
169 168 168 170 170 168 165 161 157 154 151 149 147 140 130 120 111 101 92 85 77 71 68 64 58 53 47 43 38 27 27 47 94 106 48 15 14 3 344 342 344 344 347 347 350 358 4 3 1 358 356 356 356 356 357 355 353 350 344 338 334 335 337
170 169 170 170 168 164 161 158 154 150 147 142 139 134 126 117 110 103 93 85 77 68 65 61 57 52 43 39 37 26 25 36 43 55 45 351 357 7 357 349 342 340 344 351 360 6 6 1 359 357 355 354 354 354 354 353 351 349 344 337 335 337 339
171 171 170 168 165 164 162 158 152 148 143 136 131 125 118 109 102 96 89 80 73 65 60 54 50 47 41 34 31 24 23 31 33 27 15 319 326 356 359 348 338 342 355 4 9 9 5 0 358 356 354 352 351 351 351 351 350 347 344 339 338 340 342
173 172 171 169 168 166 161 155 150 145 139 133 127 121 115 108 100 94 86 74 65 57 51 47 42 40 36 28 25 22 19 23 26 25 19 305 302 341 5 2 357 3 8 6 4 4 4 1 357 355 353 351 349 349 350 349 348 347 344 341 342 346 347
175 174 172 170 168 164 157 152 148 143 138 132 127 122 116 108 99 92 82 69 58 48 41 39 35 34 32 25 19 18 17 17 20 21 22 3 343 13 31 27 18 14 10 6 4 3 1 359 356 354 354 351 349 349 349 349 347 346 345 344 346 349 350
176 174 172 169 166 161 155 150 144 140 137 132 127 122 115 105 89 77 67 57 48 40 34 31 28 27 25 20 17 17 15 15 17 20 27 35 36 36 35 28 20 14 10 9 6 2 0 358 354 351 352 351 350 348 348 348 347 346 346 347 349 351 351
176 174 172 169 164 156 148 140 135 135 138 140 131 115 99 83 67 55 46 38 30 23 21 21 21 21 20 15 14 15 13 13 20 27 36 44 41 34 30 25 20 15 10 6 4 2 359 356 354 353 353 352 351 349 349 349 348 348 351 352 351 352 353
176 174 173 169 162 153 145 142 145 152 160 162 144 120 101 74 56 45 32 25 15 2 3 11 13 14 14 13 11 11 12 18 29 37 45 49 42 34 30 23 17 13 9 4 1 0 357 355 357 358 357 354 352 353 354 352 350 353 357 356 353 353 354
176 174 173 170 165 159 154 155 162 165 162 151 129 119 121 101 68 54 25 15 359 338 341 357 7 8 8 10 10 11 16 29 42 46 48 48 41 34 29 21 14 11 9 4 359 358 357 358 360 0 359 355 354 356 357 354 353 357 1 360 356 355 355
176 175 174 171 167 161 157 156 156 150 136 122 114 111 116 121 113 108 303 326 322 314 321 339 355 0 3 7 10 14 22 34 47 50 49 45 39 33 27 20 14 10 9 6 360 356 358 1 2 2 1 357 356 359 358 355 358 2 3 2 359 357 356